Terminal Aerodrome Forecast
Issued by NWS Denver/Boulder, CO

Home | Current Version | Previous Version | Text Only | Print | Product List | Glossary On
Versions: 1 2 3 4 5 6 7 8 9 10 11 12 13 14 15 16 17 18 19 20 21 22 23 24 25 26 27 28 29 30 31 32 33 34 35 36 37 38 39 40 41 42 43 44 45 46 47 48 49 50
000
FTUS45 KBOU 242337
TAFDEN
TAF
KDEN 242337Z 2500/2606 26009KT P6SM FEW070 SCT150 BKN220
     FM250200 21009KT P6SM SCT120 BKN200
     FM250900 24009KT P6SM SCT120 BKN200
     FM251600 02010G20KT P6SM SCT080 OVC150
     FM252100 05012G20KT 3/4SM -SN OVC005=

USA.gov is the U.S. government's official web portal to all federal, state and local government web resources and services.